Location: Unspecified
(48.1170°N, 0.0000°E)
Time: 03:32:19
(UTC+00:00)

Tiangong 2 - Visible Passes

Search period start: 25 June 2019 00:00
Search period end: 05 July 2019 00:00
Orbit: 376 x 388 km, 42.8° (Epoch: 24 June)

Date Brightness Start Highest point End Pass type
(mag) Time Alt. Az. Time Alt. Az. Time Alt. Az.
26 Jun 3.6 03:15:34 10° SSE 03:16:20 11° SSE 03:17:07 10° SE visible
28 Jun 3.2 02:50:41 11° S 02:52:18 15° SSE 02:54:15 10° ESE visible
30 Jun 2.7 02:27:25 18° S 02:28:18 20° SSE 02:30:43 10° ESE visible
01 Jul 3.6 01:29:42 12° SE 01:29:42 12° SE 01:30:08 10° ESE visible
01 Jul 2.1 03:01:51 11° SW 03:04:24 29° S 03:07:12 10° ESE visible
02 Jul 2.3 02:04:09 25° S 02:04:18 25° SSE 02:06:57 10° ESE visible
03 Jul 3.7 01:06:30 10° ESE 01:06:30 10° ESE 01:06:36 10° ESE visible
03 Jul 2.0 02:38:40 17° SW 02:40:27 30° S 02:43:16 10° ESE visible
04 Jul 2.4 01:41:06 25° SE 01:41:06 25° SE 01:43:05 10° ESE visible
04 Jul 2.2 03:13:53 10° WSW 03:16:35 26° S 03:19:16 10° SE visible
